timestamp,surface_pressure_avg,surface_temp_avg,battery_voltage,lat,long
2020-01-03 00:09:01+00:00,270.2714,2.2,12.81,47.84626,-54.09684
2020-01-03 00:19:01+00:00,264.9081,2.2,12.73,47.84626,-54.09684
2020-01-03 00:29:01+00:00,255.0064,2.2,12.73,47.84626,-54.09684
2020-01-03 00:39:01+00:00,258.2731,2.2,12.73,47.84626,-54.09684
2020-01-03 00:49:01+00:00,261.7698,2.2,12.73,47.84626,-54.09684
2020-01-03 00:59:01+00:00,260.7014,2.2,12.73,47.84626,-54.09684
2020-01-03 01:09:01+00:00,260.6147,2.2,12.73,47.84626,-54.09684
2020-01-03 01:19:01+00:00,267.748,2.2,12.73,47.84626,-54.09684
2020-01-03 01:29:01+00:00,269.8947,2.2,12.73,47.84626,-54.09684
2020-01-03 01:39:01+00:00,270.0797,2.2,12.73,47.84626,-54.09684
2020-01-03 01:49:01+00:00,269.8681,2.2,12.73,47.84626,-54.09684
2020-01-03 01:59:01+00:00,273.8464,2.2,12.73,47.84626,-54.09684
2020-01-03 02:09:01+00:00,276.598,2.2,12.73,47.84626,-54.09684
2020-01-03 02:19:01+00:00,283.2797,2.2,12.73,47.84626,-54.09684
2020-01-03 02:29:01+00:00,284.3481,2.2,12.73,47.84626,-54.09684
2020-01-03 02:39:01+00:00,287.7847,2.2,12.73,47.84626,-54.09684
2020-01-03 02:49:01+00:00,294.2814,2.2,12.73,47.84626,-54.09684
2020-01-03 02:59:01+00:00,305.9564,2.2,12.73,47.84626,-54.09684
2020-01-03 03:09:01+00:00,308.9913,2.2,12.73,47.84626,-54.09684
2020-01-03 03:19:01+00:00,311.0363,2.2,12.73,47.84626,-54.09684
2020-01-03 03:29:01+00:00,314.9897,2.2,12.73,47.84626,-54.09684
2020-01-03 03:39:01+00:00,319.1763,2.23,12.73,47.84626,-54.09684
2020-01-03 03:49:01+00:00,319.0913,2.24,12.73,47.84626,-54.09684
2020-01-03 03:59:01+00:00,326.4697,2.24,12.73,47.84626,-54.09684
2020-01-03 04:09:01+00:00,331.298,2.26,12.73,47.84626,-54.09684
2020-01-03 04:19:01+00:00,329.1546,2.23,12.73,47.84626,-54.09684
2020-01-03 04:29:01+00:00,328.4446,2.24,12.73,47.84626,-54.09684
2020-01-03 04:39:01+00:00,336.608,2.26,12.73,47.84626,-54.09684
2020-01-03 04:49:01+00:00,339.3562,2.25,12.73,47.84626,-54.09684
2020-01-03 04:59:01+00:00,339.9514,2.22,12.73,47.84626,-54.09684
2020-01-03 05:09:01+00:00,345.0964,2.23,12.73,47.84626,-54.09684
2020-01-03 05:19:01+00:00,344.2363,2.2,12.73,47.84626,-54.09684
2020-01-03 05:29:01+00:00,335.9563,2.2,12.73,47.84626,-54.09684
2020-01-03 05:39:01+00:00,335.6946,2.21,12.73,47.84626,-54.09684
2020-01-03 05:49:01+00:00,340.7463,2.24,12.73,47.84626,-54.09684
2020-01-03 05:59:01+00:00,332.7296,2.2,12.73,47.84626,-54.09684
2020-01-03 06:09:01+00:00,327.7197,2.2,12.73,47.84626,-54.09684
2020-01-03 06:19:01+00:00,332.0363,2.2,12.73,47.84626,-54.09684
2020-01-03 06:29:01+00:00,331.8813,2.2,12.73,47.84626,-54.09684
2020-01-03 06:39:01+00:00,321.6281,2.2,12.73,47.84626,-54.09684
2020-01-03 06:49:01+00:00,318.8947,2.2,12.73,47.84626,-54.09684
2020-01-03 06:59:01+00:00,324.5746,2.2,12.73,47.84626,-54.09684
2020-01-03 07:09:01+00:00,316.6197,2.2,12.73,47.84626,-54.09684
2020-01-03 07:19:01+00:00,305.1964,2.2,12.65,47.84626,-54.09684
2020-01-03 07:29:01+00:00,305.3297,2.2,12.65,47.84626,-54.09684
2020-01-03 07:39:01+00:00,307.8597,2.2,12.65,47.84626,-54.09684
2020-01-03 07:49:01+00:00,300.5164,2.2,12.65,47.84626,-54.09684
2020-01-03 07:59:01+00:00,297.0514,2.2,12.65,47.84626,-54.09684
2020-01-03 08:09:01+00:00,298.208,2.2,12.65,47.84626,-54.09684
2020-01-03 08:19:01+00:00,291.0464,2.2,12.65,47.84626,-54.09684
2020-01-03 08:29:01+00:00,278.7781,2.2,12.65,47.84626,-54.09684
2020-01-03 08:39:01+00:00,275.7664,2.2,12.65,47.84626,-54.09684
2020-01-03 08:49:01+00:00,274.7364,2.18,12.65,47.84626,-54.09684
2020-01-03 08:59:01+00:00,265.1097,2.18,12.65,47.84626,-54.09684
2020-01-03 09:09:01+00:00,258.6631,2.16,12.65,47.84626,-54.09684
2020-01-03 09:19:01+00:00,263.2314,2.18,12.65,47.84626,-54.09684
2020-01-03 09:29:01+00:00,262.9264,2.19,12.65,47.84626,-54.09684
2020-01-03 09:39:01+00:00,250.5247,2.18,12.65,47.84626,-54.09684
2020-01-03 09:49:01+00:00,245.3047,2.18,12.65,47.84626,-54.09684
2020-01-03 09:59:01+00:00,249.9347,2.19,12.65,47.84626,-54.09684
2020-01-03 10:09:01+00:00,246.1564,2.19,12.65,47.84626,-54.09684
2020-01-03 10:19:01+00:00,241.9281,2.17,12.65,47.84626,-54.09684
2020-01-03 10:29:01+00:00,248.0031,2.17,12.65,47.84626,-54.09684
2020-01-03 10:39:01+00:00,252.1398,2.18,12.65,47.84626,-54.09684
2020-01-03 10:49:01+00:00,246.0314,2.17,12.65,47.84626,-54.09684
2020-01-03 10:59:01+00:00,241.6347,2.13,12.65,47.84626,-54.09684
2020-01-03 11:09:01+00:00,248.6898,2.14,12.65,47.84626,-54.09684
2020-01-03 11:19:01+00:00,251.5447,2.16,12.65,47.84626,-54.09684
2020-01-03 11:29:01+00:00,249.6031,2.14,12.65,47.84626,-54.09684
2020-01-03 11:39:01+00:00,252.7397,2.13,12.65,47.84626,-54.09684
2020-01-03 11:49:01+00:00,260.5914,2.15,12.65,47.84626,-54.09684
2020-01-03 11:59:01+00:00,261.7481,2.16,12.65,47.84626,-54.09684
2020-01-03 12:09:01+00:00,256.7997,2.12,12.65,47.84626,-54.09684
2020-01-03 12:19:01+00:00,259.4048,2.11,12.65,47.84626,-54.09684
2020-01-03 12:29:01+00:00,260.9214,2.13,12.65,47.84626,-54.09684
2020-01-03 12:39:01+00:00,260.9481,2.12,12.65,47.84626,-54.09684
2020-01-03 12:49:01+00:00,261.2115,2.1,12.65,47.84626,-54.09684
2020-01-03 12:59:01+00:00,265.2314,2.11,12.65,47.84626,-54.09684
2020-01-03 13:09:01+00:00,261.7498,2.13,12.65,47.84626,-54.09684
2020-01-03 13:19:01+00:00,263.4364,2.12,12.89,47.84626,-54.09684
2020-01-03 13:29:01+00:00,264.1081,2.14,12.89,47.84626,-54.09684
2020-01-03 13:39:01+00:00,271.5248,2.14,12.89,47.84626,-54.09684
2020-01-03 13:49:01+00:00,275.6497,2.16,12.89,47.84626,-54.09684
2020-01-03 13:59:01+00:00,281.468,2.1,12.89,47.84626,-54.09684
2020-01-03 14:09:01+00:00,277.0281,2.12,12.89,47.84626,-54.09684
2020-01-03 14:19:01+00:00,278.2497,2.1,12.97,47.84626,-54.09684
2020-01-03 14:29:01+00:00,281.3831,2.12,12.97,47.84626,-54.09684
2020-01-03 14:39:01+00:00,289.0164,2.15,12.97,47.84626,-54.09684
2020-01-03 14:49:01+00:00,293.4397,2.16,12.97,47.84626,-54.09684
2020-01-03 14:59:01+00:00,299.7797,2.17,12.97,47.84626,-54.09684
2020-01-03 15:09:01+00:00,301.4297,2.19,12.97,47.84626,-54.09684
2020-01-03 15:19:01+00:00,303.9363,2.2,13.13,47.84626,-54.09684
2020-01-03 15:29:01+00:00,304.2181,2.2,13.13,47.84626,-54.09684
2020-01-03 15:39:01+00:00,309.7163,2.2,13.13,47.84626,-54.09684
2020-01-03 15:49:01+00:00,315.8746,2.2,13.13,47.84626,-54.09684
2020-01-03 15:59:01+00:00,317.0847,2.2,13.13,47.84626,-54.09684
2020-01-03 16:09:01+00:00,318.6964,2.2,13.13,47.84626,-54.09684
2020-01-03 16:19:01+00:00,321.8913,2.2,13.29,47.84626,-54.09684
2020-01-03 16:29:01+00:00,325.3146,2.2,13.29,47.84626,-54.09684
2020-01-03 16:39:01+00:00,325.4914,2.2,13.29,47.84626,-54.09684
2020-01-03 16:49:01+00:00,328.5030000000001,2.21,13.29,47.84626,-54.09684
2020-01-03 16:59:01+00:00,333.3647,2.21,13.29,47.84626,-54.09684
2020-01-03 17:09:01+00:00,338.5013,2.2,13.29,47.84626,-54.09684
2020-01-03 17:19:01+00:00,337.4296,2.22,13.29,47.84626,-54.09684
2020-01-03 17:29:01+00:00,336.5663,2.25,13.29,47.84626,-54.09684
2020-01-03 17:39:01+00:00,338.1163,2.26,13.29,47.84626,-54.09684
2020-01-03 17:49:01+00:00,339.168,2.26,13.29,47.84626,-54.09684
2020-01-03 17:59:01+00:00,334.1713,2.28,13.29,47.84626,-54.09684
2020-01-03 18:09:01+00:00,331.023,2.29,13.29,47.84626,-54.09684
2020-01-03 18:19:01+00:00,331.1813,2.3,13.29,47.84626,-54.09684
2020-01-03 18:29:01+00:00,326.778,2.29,13.29,47.84626,-54.09684
2020-01-03 18:39:01+00:00,326.7163,2.3,13.29,47.84626,-54.09684
2020-01-03 18:49:01+00:00,329.9496,2.3,13.29,47.84626,-54.09684
2020-01-03 18:59:01+00:00,329.3564,2.28,13.29,47.84626,-54.09684
2020-01-03 19:09:01+00:00,324.1664,2.29,13.29,47.84626,-54.09684
2020-01-03 19:19:01+00:00,325.2797,2.3,13.37,47.84626,-54.09684
2020-01-03 19:29:01+00:00,323.5813,2.29,13.37,47.84626,-54.09684
2020-01-03 19:39:01+00:00,317.708,2.29,13.37,47.84626,-54.09684
2020-01-03 19:49:01+00:00,313.8963,2.29,13.37,47.84626,-54.09684
2020-01-03 19:59:01+00:00,309.2697,2.29,13.37,47.84626,-54.09684
2020-01-03 20:09:01+00:00,299.008,2.27,13.37,47.84626,-54.09684
2020-01-03 20:19:01+00:00,292.2347,2.28,12.97,47.84626,-54.09684
2020-01-03 20:29:01+00:00,294.0496,2.28,12.97,47.84626,-54.09684
2020-01-03 20:39:01+00:00,295.173,2.27,12.97,47.84626,-54.09684
2020-01-03 20:49:01+00:00,289.9398,2.26,12.97,47.84626,-54.09684
2020-01-03 20:59:01+00:00,282.2531,2.25,12.97,47.84626,-54.09684
2020-01-03 21:09:01+00:00,276.5081,2.26,12.97,47.84626,-54.09684
2020-01-03 21:19:01+00:00,269.4147,2.26,12.81,47.84626,-54.09684
2020-01-03 21:29:01+00:00,262.8597,2.26,12.81,47.84626,-54.09684
2020-01-03 21:39:01+00:00,258.4998,2.25,12.81,47.84626,-54.09684
2020-01-03 21:49:01+00:00,254.4481,2.25,12.81,47.84626,-54.09684
2020-01-03 21:59:01+00:00,251.2397,2.24,12.81,47.84626,-54.09684
2020-01-03 22:09:01+00:00,254.0047,2.23,12.81,47.84626,-54.09684
2020-01-03 22:19:01+00:00,252.4698,2.22,12.81,47.84626,-54.09684
2020-01-03 22:29:01+00:00,249.7247,2.21,12.81,47.84626,-54.09684
2020-01-03 22:39:01+00:00,247.7397,2.2,12.81,47.84626,-54.09684
2020-01-03 22:49:01+00:00,249.4014,2.2,12.81,47.84626,-54.09684
2020-01-03 22:59:01+00:00,250.4331,2.2,12.81,47.84626,-54.09684
2020-01-03 23:09:01+00:00,248.8481,2.2,12.81,47.84626,-54.09684
2020-01-03 23:19:01+00:00,248.1898,2.2,12.73,47.84626,-54.09684
2020-01-03 23:29:01+00:00,248.2097,2.2,12.73,47.84626,-54.09684
2020-01-03 23:39:01+00:00,251.1614,2.2,12.73,47.84626,-54.09684
2020-01-03 23:49:01+00:00,249.3497,2.2,12.73,47.84626,-54.09684
2020-01-03 23:59:01+00:00,249.8647,2.2,12.73,47.84626,-54.09684
